Simultaneous Nadir Overpasses (SNOs) Predictions

Prediction of SNOs between GOES-16 and NPP Satellite Orbit:

Table of predicted SNOs for the next 14.0 days since TLE Epoch: 2/11/2023
Index Date Time (GOES-16) GOES-16 Lat,Lon NPP Lat,Lon Distance(km) Time Diff (sec)
1 02/11/2023 18:24:43 0.05, -75.20 0.30, -74.19 115.32 80
2 02/13/2023 06:46:31 -0.05, -75.20 0.91, -79.45 484.12 80
3 02/14/2023 06:25:06 -0.05, -75.21 -0.12, -74.92 33.06 80
4 02/16/2023 18:28:17 0.04, -75.22 -0.08, -75.67 52.32 80
5 02/17/2023 18:12:13 0.03, -75.22 0.95, -71.14 465.28 80
6 02/19/2023 06:34:00 -0.02, -75.24 0.24, -76.40 133.08 80
7 02/20/2023 06:12:35 -0.02, -75.24 -0.80, -71.87 384.89 80
8 02/21/2023 18:34:31 0.01, -75.27 -0.41, -77.16 216.29 80
9 02/22/2023 18:18:26 0.02, -75.28 0.63, -72.64 302.32 80
10 02/24/2023 06:40:14 -0.02, -75.31 0.54, -77.90 294.41 80
